User: anonymous   Login
Location: Unspecified
(0.0000°N, 0.0000°E)
Time: 11:59:27
(UTC+00:00)
Language:

PEGASUS - Orbit

View from above orbital plane
View from above orbital plane
View from above satellite
View from above satellite

Ground track
Ground track

The orbit data is extracted from the following two-line orbital elements,

1 42784U 17036V   18347.74685919  .00000965  00000-0  45130-4 0  9991
2 42784  97.3791  44.3923 0012796 159.9559 200.2183 15.22069859 81828
Epoch (UTC): 13 December 2018 17:55:28
Eccentricity: 0.0012796
inclination: 97.3791°
perigee height: 491 km
apogee height: 508 km
right ascension of ascending node: 44.3923°
argument of perigee: 159.9559°
revolutions per day: 15.22069859
mean anomaly at epoch: 200.2183°
orbit number at epoch: 8182

The dashed part of the orbit path shows where the satellite is in the earth's shadow,  

DLR